Weather in Dire Dawa

Ethiopia     9°35′40″N   41°51′40″E
temp.,
°C
wind,
m/s
gust,
m/s
humid.,
%
clouds,
%
prec.,
mm/h
press.,
hPa
HPBL,
m
22 april, thu
thu2200:00+19s565718 0.0 101484
03:00+18s4458100 0.0 101350
06:00+18s3359100 0.0 101528
09:00+25se2338100 0.0 10151502
12:00+27ne233286 0.0 10132635
15:00+24s344397 0.2 1011608
18:00+23sse4549100 0.1 1011268
21:00+19s556298 0.1 101383
23 april, fri
fri2300:00+18s556662 0.0 101483
03:00+17s5571100 0.0 101282
06:00+16s447788 0.0 101557
09:00+24sse12446 0.0 10141060
12:00+28n65263 0.0 10112778
15:00+29n852340 0.0 10083138
18:00+24se343924 0.0 1011378
21:00+20sse455935 0.3 1013104
24 april, sat
sat2400:00+18s677118 0.0 1013134
03:00+18s5669100 0.1 101294
06:00+17s44745 0.0 101467
09:00+24s124682 0.0 10131070
12:00+28n543171 0.1 10103024
15:00+21ssw5658100 0.6 1010354
18:00+20s786384 0.5 1011289
21:00+19s576915 0.6 1013132
25 april, sun
sun2500:00+18s577099 0.0 1013121
03:00+17s557498 0.1 101279
06:00+18s116668 0.1 101429
09:00+23nw224932 0.3 10151218
12:00+25nnw434789 1.3 10121869
15:00+17sse458689 21.4 1012180
18:00+19s567274 6.6 1012177
21:00+18s557597 6.8 101385
26 april, mon
mon2600:00+18s4474100 0.2 1013106
03:00+18s237488 0.6 101349
06:00+17s447599 0.1 101380
09:00+22w13575 0.1 10141068
12:00+25nne124646 0.8 10121995
15:00+23s445790 2.8 10101032
18:00+19s5672100 1.3 1012275
21:00+19s4573100 1.3 1013167